COSMOS 1261 DEB, 12893

Orbit data source: Space-Track

COSMOS 1261 DEB, 12893 is space debris originally from a launch on Tue, 31 Mar 1981 UTC launched from the Plesetsk Missile And Space Complex (PKMTR). Debris objects in space refer to the collection of defunct objects orbiting the Earth. Examples of debris include non-operational satellites, rocket bodies, and fragments generated from explosions, collisions, or faulty payload assembly.

Loading next visibility...
Identifier
12893, 1981-031F
Orbit
Molniya
Country
Flag of CISCIS
Related business
Manufacturer
Unknown
Mission
Spacecraft
Bus & Motor
Unknown
Mass
Unknown
Launch date (UTC)
1981-03-31 (45 years ago)
Launch vehicle
Unknown
Launch site
Plesetsk Missile And Space Complex (PKMTR)
Object type
Payload
Rocket body
Debris
Shape & HBR
Unknown shape, 0.6 m
Radar Cross Section
Medium (>0.1 m² and <1 m²)

Expand to show TLE details & history
Last TLE update: 3 days ago

TLE from 3 days ago
0 COSMOS 1261 DEB
1 12893U 81031F   26033.17401153 -.00000114  00000-0  00000-0 0  9999
2 12893  64.5852   2.4806 7118428  26.6383 356.5744  2.01072902309395
Epoch: 2026-02-02T04:10Z
TLE epoch observation values (Epoch: 2026-02-02T04:10:34.596Z)
Latitude
-0.00005°
Longitude
167.43006°
Altitude
1,637.722 km
Speed
9.189 km/s
True Right ascension
00h 09m 47s
True Declination
0° 00' 00"
Sunlit
Object was in daylight at epoch
Visualization orbit readout
Latitude
Unknown
Longitude
Unknown
Altitude
Unknown
Speed
Unknown
Apparent Right ascension
Unknown
Apparent Declination
Unknown
Sunlit
N/A
Visualization observer readout
Local Sidereal Time
03:04:16
Azimuth
Unknown
Elevation
Unknown
Doppler factor
Unknown
Orbital elements
Apogee altitude
39,010.387 km
Perigee altitude
1,262.185 km
Semi-major axis
26,514.423 km
Eccentricity
0.71184
Inclination
64.5852°
RAAN
2.4806°
Arg. of periapsis
26.6383°
True anomaly
331.98466°
Mean anomaly
356.5744°
Eccentric anomaly
348.31189°
Mean motion
0.50271 °/min
Orbital period
716.11 mins
BSTAR
0
Loading maneuver chart data...
Computing Atmospheric mass density...
Loading historical data...
Loading historical data...
Loading historical data...
Loading historical data...
Loading historical data...
Loading historical data...
Loading historical data...

Documentation

Showing up to 5 results
|